Find Starlink 1114

NORAD ID: 44927 Int'l Des: 2020-001 Owner: SPXS Country: US Constellation: starlink operational
LEOCIRCULAR

リアルタイム位置

3D地球を読み込み中...

Starlink 1114について

説明を読み込み中...

次回通過

Passes for default location (London). Set your location on the main map for personalized predictions.

高度履歴

Loading altitude history...

軌道要素

1 44927U 20001P 26122.34377560 .00108576 00000-0 13235-2 0 9990
2 44927 53.0438 69.9241 0003217 20.8846 339.2297 15.59676029348441
Epoch: May 2, 2026 • Age: 14 hours

現在のステータス

高度 393.1 km
速度 7.68 km/s
衛星直下点 51.47°N, 60.17°W
打ち上げ日 Jan 7, 2020
運用期間 6.3 years
タイプ internet

技術仕様

分類 Payload
質量 260.00 kg
乾燥質量 248.00 kg
総質量 260.00 kg
長さ 0.20 m
直径 2.80 m
スパン 9.00 m
形状 Box + pan
製造者 SPXS
バスタイプ Starlink
フェーズステータス In Orbit
所有者/国 SPXS/US

Most Searched